[TLELIST] Archives

 

Current TLEs

January 8th 2007 PDT

HST 1 20580U 90037B 07007.81242443 .00000458 00000-0 22790-4 0 7771 2 20580 028.4659 155.8445 0003854 193.4437 166.6052 15.00171244715851 ISS (ZARYA) 1 25544U 98067A 07008.05455170 .00017075 00000-0 10570-3 0 4038 2 25544 051.6328 211.3456 0023746 067.5016 070.7859 15.76836839465485 CXO 1 25867U 99040B 07003.70833333 +.00000222 +00000-0 +00000-0 0 00199 2 25867 060.9270 092.8009 6008930 287.0180 357.5778 00.37798454001633 ____________________________________________________________________ These 2-Line ...Continue Reading

Current TLEs

January 7th 2007 PDT

HST 1 20580U 90037B 07006.54838910 .00000426 00000-0 20241-4 0 7763 2 20580 028.4657 164.0866 0003852 181.9165 178.1407 15.00170217715666 ISS (ZARYA) 1 25544U 98067A 07007.47328688 .00019557 00000-0 12055-3 0 3997 2 25544 051.6324 214.3428 0023311 065.8764 010.6192 15.76826515465395 CXO 1 25867U 99040B 07003.70833333 +.00000222 +00000-0 +00000-0 0 00199 2 25867 060.9270 092.8009 6008930 287.0180 357.5778 00.37798454001633 ____________________________________________________________________ These 2-Line ...Continue Reading

Current TLEs

January 6th 2007 PDT

HST 1 20580U 90037B 07004.81865532 .00000406 00000-0 18717-4 0 7753 2 20580 028.4657 175.3632 0003827 163.5544 196.5169 15.00169143715408 ISS (ZARYA) 1 25544U 98067A 07005.19608993 .00022904 00000-0 14086-3 0 3844 2 25544 051.6336 226.0868 0023624 057.1578 044.2962 15.76743237465038 CXO 1 25867U 99040B 07003.70833333 +.00000222 +00000-0 +00000-0 0 00199 2 25867 060.9270 092.8009 6008930 287.0180 357.5778 00.37798454001633 ____________________________________________________________________ These 2-Line ...Continue Reading

Current TLEs

January 5th 2007 PDT

HST 1 20580U 90037B 07004.81865532 .00000406 00000-0 18717-4 0 7753 2 20580 028.4657 175.3632 0003827 163.5544 196.5169 15.00169143715408 ISS (ZARYA) 1 25544U 98067A 07004.81522880 .00023137 00000-0 14234-3 0 3824 2 25544 051.6336 228.0502 0023673 055.5770 042.5549 15.76725951464972 CXO 1 25867U 99040B 06363.41666667 +.00000352 +00000-0 +00000-0 0 00182 2 25867 060.8868 092.9355 6008030 287.1136 357.1580 00.37807561001618 ____________________________________________________________________ These 2-Line ...Continue Reading

Current TLEs

January 4th 2007 PDT

HST 1 20580U 90037B 07003.55461972 .00000377 00000-0 16453-4 0 7744 2 20580 028.4668 183.6139 0003842 150.1576 209.9234 15.00168436715213 ISS (ZARYA) 1 25544U 98067A 07004.49469251 .00019155 00000-0 11876-3 0 3790 2 25544 051.6352 229.6992 0023757 055.1110 022.3397 15.76696960464926 CXO 1 25867U 99040B 06363.41666667 +.00000352 +00000-0 +00000-0 0 00182 2 25867 060.8868 092.9355 6008030 287.1136 357.1580 00.37807561001618 ____________________________________________________________________ These 2-Line ...Continue Reading

Current TLEs

January 3rd 2007 PDT

HST 1 20580U 90037B 07001.95793973 .00000345 00000-0 13951-4 0 7739 2 20580 028.4669 194.0232 0003809 133.9242 226.1662 15.00167586714979 ISS (ZARYA) 1 25544U 98067A 07003.47961045 .00019665 00000-0 12204-3 0 3731 2 25544 051.6352 234.9372 0023695 051.4221 020.4719 15.76655271464769 CXO 1 25867U 99040B 06363.41666667 +.00000352 +00000-0 +00000-0 0 00182 2 25867 060.8868 092.9355 6008030 287.1136 357.1580 00.37807561001618 ____________________________________________________________________ These 2-Line ...Continue Reading

Current TLEs

January 2nd 2007 PDT

HST 1 20580U 90037B 07001.95793973 .00000345 00000-0 13951-4 0 7739 2 20580 028.4669 194.0232 0003809 133.9242 226.1662 15.00167586714979 ISS (ZARYA) 1 25544U 98067A 07002.53054912 .00015783 00000-0 98993-4 0 3673 2 25544 051.6364 239.8293 0023910 047.2734 034.1997 15.76609310464617 CXO 1 25867U 99040B 06363.41666667 +.00000352 +00000-0 +00000-0 0 00182 2 25867 060.8868 092.9355 6008030 287.1136 357.1580 00.37807561001618 ____________________________________________________________________ These 2-Line ...Continue Reading

Current TLEs

January 1st 2007 PDT

HST 1 20580U 90037B 06365.89348565 .00000321 00000-0 12111-4 0 7727 2 20580 028.4672 200.9640 0003753 123.5992 236.4956 15.00167083714813 ISS (ZARYA) 1 25544U 98067A 07001.26648269 .00014732 00000-0 92872-4 0 3624 2 25544 051.6359 246.3446 0023857 043.1158 059.0240 15.76566007464419 CXO 1 25867U 99040B 06363.41666667 +.00000352 +00000-0 +00000-0 0 00182 2 25867 060.8868 092.9355 6008030 287.1136 357.1580 00.37807561001618 ____________________________________________________________________ These 2-Line ...Continue Reading

Current TLEs

December 31st 2006 PDT

HST 1 20580U 90037B 06363.96416141 +.00000320 +00000-0 +12042-4 0 07855 2 20580 028.4675 213.5452 0003671 103.3371 256.7628 15.00166466714526 ISS (ZARYA) 1 25544U 98067A 06365.18559146 .00014031 00000-0 88814-4 0 3568 2 25544 051.6364 251.9169 0023743 038.8068 044.5015 15.76530641464249 CXO 1 25867U 99040B 06363.41666667 +.00000352 +00000-0 +00000-0 0 00182 2 25867 060.8868 092.9355 6008030 287.1136 357.1580 00.37807561001618 ____________________________________________________________________ These 2-Line ...Continue Reading

Current TLEs

December 30th 2006 PDT

HST 1 20580U 90037B 06364.03068981 .00000334 00000-0 13085-4 0 7717 2 20580 028.4675 213.1109 0003708 103.8574 256.2430 15.00166593714530 ISS (ZARYA) 1 25544U 98067A 06364.30151741 .00013893 00000-0 88075-4 0 3519 2 25544 051.6361 256.4735 0023863 035.2706 067.1105 15.76503871464109 CXO 1 25867U 99040B 06363.41666667 +.00000352 +00000-0 +00000-0 0 00182 2 25867 060.8868 092.9355 6008030 287.1136 357.1580 00.37807561001618 ____________________________________________________________________ These 2-Line ...Continue Reading
  • This mailing list is a public mailing list - anyone may join or leave, at any time.
  • This mailing list is announce-only.

International Space Station (ISS) / Hubble Space Telescope (HST) / Chandra X-Ray Observatory Orbital Data via EMAIL

Privacy Policy:

Private list